KF5WKW Weather Reports


time (UTC)temp
F
wind
direction
speed
knots
gust
knots
rain 1hr
in
rain 24hr
in
rain mn
in
humidity
%
barometer
mb
20260504024516 55 0.0 0.0 0.00 0.00 0.00 89 1015.1
20260504023536 56 0.0 0.0 0.00 0.00 0.00 88 1015.1
20260504022516 56 0.0 0.0 0.00 0.00 0.00 87 1015.0
20260504021536 57 0.0 0.0 0.00 0.00 0.00 86 1014.9
20260504020516 57 0.0 0.0 0.00 0.00 0.00 85 1014.8
20260504015536 58 0.0 0.0 0.00 0.00 0.00 84 1014.7
20260504014516 59 0.0 0.0 0.00 0.00 0.00 82 1014.6
20260504013516 60 0.0 0.0 0.00 0.00 0.00 81 1014.5
20260504012516 60 0.0 0.0 0.00 0.00 0.00 79 1014.4
20260504011515 61 0.0 1.7 0.00 0.00 0.00 77 1014.3
20260504010516 62 0.0 0.0 0.00 0.00 0.00 73 1014.2
20260504005516 63 0.0 0.0 0.00 0.00 0.00 70 1014.1
20260504004515 65 0.0 0.0 0.00 0.00 0.00 65 1014.1
20260504003516 67 0.0 0.0 0.00 0.00 0.00 65 1013.9
20260504002516 69 0.0 0.9 0.00 0.00 0.00 59 1013.8
20260504001517 71 0.0 1.7 0.00 0.00 0.00 50 1013.8
20260504000515 72 0.0 2.6 0.00 0.00 0.00 47 1013.7
20260503235515 73 338 0.9 2.6 0.00 0.00 0.00 44 1013.7
20260503234516 74 315 0.9 3.5 0.00 0.00 0.00 44 1013.6
20260503233515 74 0.0 1.7 0.00 0.00 0.00 43 1013.6
20260503232516 74 315 0.9 2.6 0.00 0.00 0.00 42 1013.6
20260503231515 75 315 2.6 6.1 0.00 0.00 0.00 41 1013.6
20260503230537 75 315 1.7 4.3 0.00 0.00 0.00 41 1013.6
20260503225517 75 338 2.6 4.3 0.00 0.00 0.00 41 1013.6
20260503224517 76 315 4.3 7.8 0.00 0.00 0.00 39 1013.5
20260503223517 76 315 0.9 5.2 0.00 0.00 0.00 39 1013.6
20260503222517 76 0.0 3.5 0.00 0.00 0.00 38 1013.7
20260503221520 77 338 2.6 6.1 0.00 0.00 0.00 39 1013.5
20260503220517 77 293 0.9 5.2 0.00 0.00 0.00 38 1013.6
20260503215517 77 315 0.9 5.2 0.00 0.00 0.00 37 1013.8
20260503214517 77 45 3.5 7.8 0.00 0.00 0.00 36 1013.8
20260503213517 77 315 3.5 6.1 0.00 0.00 0.00 37 1013.9
20260503212517 77 315 2.6 7.0 0.00 0.00 0.00 38 1014.0
20260503211537 77 315 3.5 8.7 0.00 0.00 0.00 37 1014.1
20260503210517 77 338 1.7 7.0 0.00 0.00 0.00 38 1014.3
20260503205517 77 315 1.7 7.8 0.00 0.00 0.00 34 1014.4
20260503204537 78 315 7.0 10.4 0.00 0.00 0.00 33 1014.6
20260503203538 77 315 1.7 5.2 0.00 0.00 0.00 34 1014.5
20260503202517 77 338 0.9 5.2 0.00 0.00 0.00 41 1014.6
20260503201517 77 338 4.3 7.8 0.00 0.00 0.00 37 1014.8
20260503200517 77 338 4.3 8.7 0.00 0.00 0.00 37 1014.9
20260503195517 77 315 5.2 10.4 0.00 0.00 0.00 35 1015.1
20260503194517 77 338 2.6 12.2 0.00 0.00 0.00 35 1015.2
20260503193517 76 315 5.2 10.4 0.00 0.00 0.00 36 1015.4
20260503192517 76 315 2.6 5.2 0.00 0.00 0.00 34 1015.5
20260503191517 76 315 7.0 11.3 0.00 0.00 0.00 35 1015.7
20260503190517 76 315 2.6 7.0 0.00 0.00 0.00 34 1015.9
20260503185517 76 315 3.5 7.0 0.00 0.00 0.00 42 1016.0
20260503184537 75 315 4.3 8.7 0.00 0.00 0.00 34 1016.0
20260503183517 76 315 3.5 7.8 0.00 0.00 0.00 37 1016.3
20260503182517 75 338 2.6 6.1 0.00 0.00 0.00 40 1016.2
20260503181517 75 315 2.6 7.8 0.00 0.00 0.00 39 1016.3
20260503180517 74 338 2.6 7.0 0.00 0.00 0.00 37 1016.5
20260503175517 74 315 4.3 9.6 0.00 0.00 0.00 39 1016.5
20260503174518 74 293 2.6 7.8 0.00 0.00 0.00 38 1016.7
20260503173517 74 315 4.3 10.4 0.00 0.00 0.00 40 1016.8
20260503172516 74 315 4.3 10.4 0.00 0.00 0.00 37 1017.1
20260503171518 74 315 2.6 7.8 0.00 0.00 0.00 39 1017.3
20260503170517 73 315 5.2 11.3 0.00 0.00 0.00 39 1017.3
20260503150517 70 315 0.9 6.1 0.00 0.00 0.00 54 1018.3
20260503130516 59 0.0 0.9 0.00 0.00 0.00 81 1017.3
20260503110516 42 0.0 0.0 0.00 0.10 0.00 99 1016.5
20260503081517 44 0.0 0.0 0.00 0.41 0.00 99 1015.3
20260503080517 44 0.0 0.0 0.00 0.43 0.00 99 1015.3
20260503072537 45 0.0 0.0 0.00 0.52 0.00 98 1015.2
20260503071517 45 0.0 0.0 0.00 0.55 0.00 98 1015.2
20260503070517 45 0.0 0.0 0.00 0.58 0.00 98 1015.2
20260503054517 47 0.0 0.0 0.00 0.84 0.00 97 1014.8
20260503053517 47 0.0 0.0 0.00 0.85 0.00 97 1014.9
20260503052537 47 0.0 0.0 0.00 0.85 0.00 97 1014.8
20260503051517 48 0.0 0.0 0.00 0.85 0.00 97 1014.8
20260503050517 48 0.0 0.0 0.00 0.85 0.00 97 1014.7
20260503045516 48 0.0 0.0 0.00 0.85 0.85 96 1014.6
20260503044516 48 0.0 0.0 0.00 0.85 0.85 96 1014.7
20260503043516 48 0.0 0.0 0.00 0.85 0.85 95 1014.4
20260503042516 48 0.0 0.0 0.00 0.85 0.85 95 1014.5
20260503041516 49 0.0 0.0 0.00 0.86 0.85 95 1014.4
20260503040537 49 0.0 0.0 0.00 0.86 0.85 94 1014.4
20260503035536 49 0.0 0.0 0.00 0.87 0.85 93 1014.4
20260503034516 50 0.0 0.0 0.00 0.90 0.85 92 1014.2
20260503033516 50 0.0 0.0 0.00 0.92 0.85 91 1014.1
20260503032516 51 0.0 0.0 0.00 0.94 0.85 91 1014.1
20260503031536 51 0.0 0.0 0.00 0.94 0.85 91 1013.9
20260503030516 52 0.0 0.0 0.00 0.95 0.85 89 1014.0
20260503025516 53 0.0 0.0 0.00 0.96 0.85 87 1013.9